Regional Weather Roundup
Issued by NWS

Home | Current Version | Previous Version | Text Only | Print | Product List | Glossary On
Versions: 1 2 3 4 5 6 7 8 9 10 11 12 13 14 15 16 17 18 19 20 21 22 23 24 25 26 27 28 29 30 31 32 33 34 35 36 37 38 39 40 41 42 43 44 45 46 47 48 49 50
000
ASUS43 KTOP 241308
RWRKS

WEATHER ROUNDUP FOR KANSAS
NATIONAL WEATHER SERVICE GOODLAND KS
800 AM CDT MON APR 24 2017

NOTE:  "FAIR" INDICATES FEW OR NO CLOUDS BELOW 12,000 FEET WITH NO
SIGNIFICANT WEATHER AND/OR OBSTRUCTIONS TO VISIBILITY.

KSZ001>006-013>018-027>032-041>047-241400-
NORTHWEST KANSAS

CITY           SKY/WX    TMP DP  RH WIND       PRES   REMARKS
GOODLAND       CLOUDY    53  42  66 NW17      29.59R
HAYS           MOSUNNY   53  37  54 S18G30    29.65R
HILL CITY      CLOUDY    53  37  54 S15G22    29.58S
RUSSELL        MOSUNNY   54  37  52 S24G39    29.63F
$$

KSZ061>065-074>080-084>089-241400-
SOUTHWEST KANSAS

CITY           SKY/WX    TMP DP  RH WIND       PRES   REMARKS
DODGE CITY     CLOUDY    50  36  58 S20G28    29.67F
ELKHART          N/A     51  32  48 SW16        N/A
GARDEN CITY    MOSUNNY   50  35  56 S10       29.63S
GREAT BEND     CLOUDY    54  38  54 S33G40    29.66F
PRATT          CLOUDY    49  35  60 S24G31    29.74S
$$

KSZ066>073-081>083-090>101-241400-
SOUTHEAST KANSAS

CITY           SKY/WX    TMP DP  RH WIND       PRES   REMARKS
CHANUTE        SUNNY     51  43  74 SE12      29.92R
COFFEYVILLE    SUNNY     51  44  77 S8        29.93F
HUTCHINSON     CLOUDY    54  38  54 S24G32    29.77F
MEDICINE LODGE   N/A     50  38  63 S16G23    29.78F
NEWTON         SUNNY     51  40  65 S18G24    29.82F
PARSONS        SUNNY     53  42  66 SE6       29.94S
WICHITA INTL   MOSUNNY   51  40  65 S16       29.82F
WICHITA JABRA  SUNNY     51  39  63 S16G24    29.83F
WICHITA MCCONL SUNNY     52  37  56 S21G26    29.83F
WINFIELD       SUNNY     52  41  66 SE12      29.87F
$$

KSZ007>012-019>026-033>040-048>060-102>105-241400-
NORTHEAST KANSAS

CITY           SKY/WX    TMP DP  RH WIND       PRES   REMARKS
CONCORDIA      SUNNY     51  39  63 S24G32    29.70F
EMPORIA        SUNNY     50  41  71 S16       29.85F
LAWRENCE       SUNNY     52  42  69 SE10      29.88F
MANHATTAN      SUNNY     54  39  57 S16       29.80F
MARYSVILLE     MOSUNNY   52  37  58 S12G17    29.78F
OLATHE IND     SUNNY     51  41  68 S12       29.91F
OLATHE EXE     SUNNY     50  42  74 S12       29.92S
SALINA         SUNNY     55  39  54 S23G31    29.76F
TOPEKA BILLARD SUNNY     55  40  56 S15       29.85F
TOPEKA FORBES  SUNNY     55  40  56 S15G22    29.85F
$$




USA.gov is the U.S. government's official web portal to all federal, state and local government web resources and services.